| time (UTC) | temp F | wind direction | speed MPH | gust MPH | rain 1hr in | rain 24hr in | rain mn in | humidity % | barometer mb |
| 20260505215030 | 65 | 244 | 6.0 | 15.0 | 0.00 | 0.00 | 0.00 | 67 | 1006.2 |
| 20260505214607 | 66 | 274 | 7.0 | 18.0 | 0.00 | 0.00 | 0.00 | 66 | 1006.0 |
| 20260505213557 | 67 | 267 | 10.0 | 23.0 | 0.00 | 0.00 | 0.00 | 63 | 1005.5 |
| 20260505213106 | 67 | 238 | 7.0 | 18.0 | 0.00 | 0.00 | 0.00 | 64 | 1005.3 |
| 20260505212524 | 68 | 252 | 7.0 | 17.0 | 0.00 | 0.00 | 0.00 | 62 | 1005.2 |
| 20260505212158 | 68 | 237 | 5.0 | 15.0 | 0.00 | 0.00 | 0.00 | 63 | 1005.3 |
| 20260505211037 | 68 | 268 | 9.0 | 22.0 | 0.00 | 0.00 | 0.00 | 64 | 1005.0 |
| 20260505210633 | 68 | 309 | 9.0 | 22.0 | 0.00 | 0.00 | 0.00 | 63 | 1005.0 |
| 20260505210036 | 68 | 307 | 9.0 | 18.0 | 0.00 | 0.00 | 0.00 | 63 | 1005.2 |
| 20260505205537 | 69 | 269 | 7.0 | 14.0 | 0.00 | 0.00 | 0.00 | 64 | 1005.1 |
| 20260505205027 | 69 | 251 | 5.0 | 11.0 | 0.00 | 0.00 | 0.00 | 64 | 1005.0 |
| 20260505204533 | 68 | 269 | 5.0 | 9.0 | 0.00 | 0.00 | 0.00 | 65 | 1004.9 |
| 20260505204058 | 68 | 250 | 3.0 | 11.0 | 0.00 | 0.00 | 0.00 | 65 | 1004.9 |
| 20260505203527 | 68 | 259 | 6.0 | 11.0 | 0.00 | 0.00 | 0.00 | 64 | 1004.9 |
| 20260505203023 | 68 | 224 | 2.0 | 13.0 | 0.00 | 0.00 | 0.00 | 66 | 1004.7 |
| 20260505202546 | 68 | 243 | 5.0 | 13.0 | 0.00 | 0.00 | 0.00 | 65 | 1004.8 |
| 20260505202036 | 68 | 231 | 3.0 | 7.0 | 0.00 | 0.00 | 0.00 | 65 | 1004.9 |
| 20260505201652 | 68 | 200 | 3.0 | 7.0 | 0.00 | 0.00 | 0.00 | 65 | 1004.8 |
| 20260505201056 | 68 | 257 | 2.0 | 11.0 | 0.00 | 0.00 | 0.00 | 66 | 1004.9 |
| 20260505200535 | 68 | 228 | 5.0 | 11.0 | 0.00 | 0.00 | 0.00 | 64 | 1004.9 |
| 20260505200050 | 68 | 227 | 2.0 | 11.0 | 0.00 | 0.00 | 0.00 | 65 | 1004.9 |
| 20260505195532 | 68 | 268 | 5.0 | 14.0 | 0.00 | 0.00 | 0.00 | 64 | 1004.9 |
| 20260505195033 | 68 | 254 | 7.0 | 14.0 | 0.00 | 0.00 | 0.00 | 63 | 1004.8 |
| 20260505193541 | 69 | 244 | 4.0 | 14.0 | 0.00 | 0.00 | 0.00 | 62 | 1004.6 |
| 20260505193042 | 70 | 267 | 8.0 | 17.0 | 0.00 | 0.00 | 0.00 | 60 | 1004.6 |
| 20260505192546 | 71 | 255 | 7.0 | 17.0 | 0.00 | 0.00 | 0.00 | 59 | 1004.5 |
| 20260505192026 | 72 | 273 | 7.0 | 14.0 | 0.00 | 0.00 | 0.00 | 57 | 1004.4 |
| 20260505191539 | 72 | 211 | 5.0 | 13.0 | 0.00 | 0.00 | 0.00 | 56 | 1004.2 |
| 20260505191040 | 73 | 249 | 8.0 | 13.0 | 0.00 | 0.00 | 0.00 | 55 | 1004.4 |
| 20260505190524 | 73 | 261 | 7.0 | 14.0 | 0.00 | 0.00 | 0.00 | 56 | 1004.3 |
| 20260505190050 | 73 | 248 | 5.0 | 14.0 | 0.00 | 0.00 | 0.00 | 55 | 1004.2 |
| 20260505185525 | 73 | 217 | 4.0 | 12.0 | 0.00 | 0.00 | 0.00 | 57 | 1004.1 |
| 20260505185041 | 73 | 267 | 4.0 | 12.0 | 0.00 | 0.00 | 0.00 | 56 | 1004.1 |
| 20260505184524 | 73 | 229 | 6.0 | 9.0 | 0.00 | 0.00 | 0.00 | 58 | 1004.0 |
| 20260505184041 | 72 | 244 | 5.0 | 11.0 | 0.00 | 0.00 | 0.00 | 58 | 1004.1 |
| 20260505183536 | 72 | 253 | 5.0 | 11.0 | 0.00 | 0.00 | 0.00 | 57 | 1004.1 |
| 20260505183047 | 72 | 285 | 3.0 | 10.0 | 0.00 | 0.00 | 0.00 | 58 | 1004.2 |
| 20260505182544 | 72 | 234 | 3.0 | 11.0 | 0.00 | 0.00 | 0.00 | 59 | 1004.1 |
| 20260505181524 | 72 | 274 | 6.0 | 13.0 | 0.00 | 0.00 | 0.00 | 57 | 1004.4 |
| 20260505181035 | 73 | 190 | 6.0 | 13.0 | 0.00 | 0.00 | 0.00 | 56 | 1004.3 |
| 20260505180531 | 74 | 256 | 4.0 | 10.0 | 0.00 | 0.00 | 0.00 | 59 | 1004.3 |
| 20260505180043 | 73 | 216 | 5.0 | 10.0 | 0.00 | 0.00 | 0.00 | 58 | 1004.2 |
| 20260505175552 | 73 | 250 | 3.0 | 14.0 | 0.00 | 0.00 | 0.00 | 59 | 1004.3 |
| 20260505174522 | 72 | 201 | 5.0 | 12.0 | 0.00 | 0.00 | 0.00 | 59 | 1003.9 |
| 20260505174048 | 72 | 209 | 5.0 | 12.0 | 0.00 | 0.00 | 0.00 | 62 | 1004.0 |
| 20260505173531 | 71 | 250 | 4.0 | 10.0 | 0.00 | 0.00 | 0.00 | 61 | 1003.9 |
| 20260505173120 | 71 | 275 | 4.0 | 12.0 | 0.00 | 0.00 | 0.00 | 61 | 1003.8 |
| 20260505172530 | 71 | 268 | 5.0 | 12.0 | 0.00 | 0.00 | 0.00 | 60 | 1003.8 |
| 20260505172040 | 70 | 259 | 4.0 | 13.0 | 0.00 | 0.00 | 0.00 | 62 | 1003.8 |
| 20260505171550 | 70 | 267 | 6.0 | 16.0 | 0.00 | 0.00 | 0.00 | 60 | 1004.0 |
| 20260505171034 | 70 | 258 | 7.0 | 16.0 | 0.00 | 0.00 | 0.00 | 61 | 1004.1 |
| 20260505170534 | 70 | 254 | 8.0 | 16.0 | 0.00 | 0.00 | 0.00 | 59 | 1004.0 |
| 20260505170030 | 70 | 251 | 8.0 | 15.0 | 0.00 | 0.00 | 0.00 | 58 | 1004.1 |
| 20260505165545 | 71 | 308 | 3.0 | 11.0 | 0.00 | 0.00 | 0.00 | 58 | 1004.0 |
| 20260505165032 | 71 | 188 | 4.0 | 13.0 | 0.00 | 0.00 | 0.00 | 56 | 1003.8 |
| 20260505164530 | 71 | 202 | 4.0 | 11.0 | 0.00 | 0.00 | 0.00 | 56 | 1003.8 |
| 20260505164045 | 71 | 247 | 3.0 | 11.0 | 0.00 | 0.00 | 0.00 | 56 | 1003.6 |
| 20260505163547 | 71 | 252 | 4.0 | 11.0 | 0.00 | 0.00 | 0.00 | 56 | 1003.7 |
| 20260505163032 | 71 | 242 | 4.0 | 11.0 | 0.00 | 0.00 | 0.00 | 56 | 1003.6 |
| 20260505162551 | 71 | 232 | 4.0 | 11.0 | 0.00 | 0.00 | 0.00 | 56 | 1003.5 |
| 20260505162108 | 72 | 238 | 5.0 | 11.0 | 0.00 | 0.00 | 0.00 | 56 | 1003.2 |
| 20260505161557 | 72 | 211 | 3.0 | 8.0 | 0.00 | 0.00 | 0.00 | 59 | 1003.3 |
| 20260505161051 | 72 | 242 | 2.0 | 9.0 | 0.00 | 0.00 | 0.00 | 58 | 1003.3 |
| 20260505160543 | 72 | 247 | 3.0 | 9.0 | 0.00 | 0.00 | 0.00 | 59 | 1003.3 |
| 20260505153036 | 72 | 172 | 4.0 | 10.0 | 0.00 | 0.00 | 0.00 | 58 | 1002.7 |
| 20260505152544 | 72 | 271 | 6.0 | 10.0 | 0.00 | 0.00 | 0.00 | 58 | 1002.9 |
| 20260505152030 | 72 | 211 | 4.0 | 12.0 | 0.00 | 0.00 | 0.00 | 58 | 1002.9 |
| 20260505151607 | 72 | 204 | 4.0 | 12.0 | 0.00 | 0.00 | 0.00 | 58 | 1003.0 |
| 20260505151105 | 72 | 240 | 5.0 | 11.0 | 0.00 | 0.00 | 0.00 | 57 | 1003.0 |
| 20260505150542 | 72 | 205 | 5.0 | 11.0 | 0.00 | 0.00 | 0.00 | 58 | 1003.1 |
| 20260505140540 | 71 | 200 | 7.0 | 16.0 | 0.00 | 0.00 | 0.00 | 58 | 1002.7 |
| 20260505124551 | 71 | 177 | 6.0 | 16.0 | 0.00 | 0.00 | 0.00 | 59 | 1002.4 |
| 20260505124049 | 70 | 188 | 6.0 | 13.0 | 0.00 | 0.00 | 0.00 | 59 | 1002.4 |
| 20260505123541 | 70 | 202 | 6.0 | 15.0 | 0.00 | 0.00 | 0.00 | 60 | 1002.4 |
| 20260505123031 | 70 | 201 | 8.0 | 15.0 | 0.00 | 0.00 | 0.00 | 59 | 1002.3 |
| 20260505122531 | 70 | 215 | 5.0 | 14.0 | 0.00 | 0.00 | 0.00 | 60 | 1002.3 |
| 20260505122048 | 69 | 209 | 8.0 | 16.0 | 0.00 | 0.00 | 0.00 | 60 | 1002.2 |
| 20260505121527 | 69 | 201 | 8.0 | 16.0 | 0.00 | 0.00 | 0.00 | 60 | 1002.3 |
| 20260505121042 | 69 | 209 | 7.0 | 15.0 | 0.00 | 0.00 | 0.00 | 61 | 1002.3 |
| 20260505120533 | 69 | 219 | 6.0 | 10.0 | 0.00 | 0.00 | 0.00 | 61 | 1002.4 |
| 20260505120036 | 69 | 195 | 4.0 | 14.0 | 0.00 | 0.00 | 0.00 | 61 | 1002.4 |
| 20260505115532 | 69 | 192 | 9.0 | 14.0 | 0.00 | 0.00 | 0.00 | 61 | 1002.4 |
| 20260505115044 | 69 | 202 | 6.0 | 14.0 | 0.00 | 0.00 | 0.00 | 61 | 1002.5 |
| 20260505114025 | 69 | 192 | 6.0 | 10.0 | 0.00 | 0.00 | 0.00 | 61 | 1002.3 |
| 20260505113542 | 69 | 190 | 6.0 | 12.0 | 0.00 | 0.00 | 0.00 | 61 | 1002.3 |
| 20260505113045 | 68 | 200 | 6.0 | 14.0 | 0.00 | 0.00 | 0.00 | 62 | 1002.3 |
| 20260505112523 | 68 | 194 | 8.0 | 14.0 | 0.00 | 0.00 | 0.00 | 62 | 1002.2 |
| 20260505112047 | 68 | 198 | 5.0 | 14.0 | 0.00 | 0.00 | 0.00 | 63 | 1002.1 |
| 20260505111544 | 68 | 194 | 6.0 | 13.0 | 0.00 | 0.00 | 0.00 | 63 | 1002.0 |
| 20260505111036 | 67 | 206 | 6.0 | 13.0 | 0.00 | 0.00 | 0.00 | 63 | 1002.1 |
| 20260505110554 | 67 | 196 | 6.0 | 12.0 | 0.00 | 0.00 | 0.00 | 63 | 1002.0 |
| 20260505102028 | 65 | 183 | 4.0 | 9.0 | 0.00 | 0.00 | 0.00 | 66 | 1001.6 |
| 20260505101535 | 65 | 210 | 5.0 | 8.0 | 0.00 | 0.00 | 0.00 | 66 | 1001.6 |
| 20260505101042 | 65 | 197 | 4.0 | 7.0 | 0.00 | 0.00 | 0.00 | 66 | 1001.5 |
| 20260505100542 | 65 | 197 | 4.0 | 7.0 | 0.00 | 0.00 | 0.00 | 66 | 1001.5 |
| 20260505100034 | 65 | 220 | 4.0 | 7.0 | 0.00 | 0.00 | 0.00 | 67 | 1001.5 |
| 20260505095535 | 65 | 199 | 3.0 | 8.0 | 0.00 | 0.00 | 0.00 | 67 | 1001.5 |
| 20260505095028 | 64 | 199 | 4.0 | 7.0 | 0.00 | 0.00 | 0.00 | 68 | 1001.5 |
| 20260505094545 | 64 | 178 | 3.0 | 7.0 | 0.00 | 0.00 | 0.00 | 70 | 1001.5 |
| 20260505094046 | 63 | 201 | 4.0 | 7.0 | 0.00 | 0.00 | 0.00 | 71 | 1001.5 |
| 20260505093523 | 62 | 193 | 4.0 | 7.0 | 0.00 | 0.00 | 0.00 | 74 | 1001.5 |
| 20260505093043 | 61 | 186 | 4.0 | 7.0 | 0.00 | 0.00 | 0.00 | 76 | 1001.6 |
| 20260505092525 | 60 | 171 | 3.0 | 5.0 | 0.00 | 0.00 | 0.00 | 78 | 1001.6 |
| 20260505092031 | 60 | 155 | 1.0 | 5.0 | 0.00 | 0.00 | 0.00 | 77 | 1001.6 |
| 20260505091521 | 60 | 144 | 2.0 | 5.0 | 0.00 | 0.00 | 0.00 | 77 | 1001.8 |
| 20260505091028 | 60 | 148 | 2.0 | 5.0 | 0.00 | 0.00 | 0.00 | 77 | 1001.9 |
| 20260505090523 | 61 | 157 | 3.0 | 6.0 | 0.00 | 0.00 | 0.00 | 76 | 1001.9 |
| 20260505090028 | 61 | 155 | 2.0 | 6.0 | 0.00 | 0.00 | 0.00 | 75 | 1002.1 |
| 20260505085541 | 61 | 138 | 2.0 | 5.0 | 0.00 | 0.00 | 0.00 | 74 | 1002.2 |
| 20260505085033 | 62 | 141 | 0.0 | 3.0 | 0.00 | 0.00 | 0.00 | 73 | 1002.2 |
| 20260505084547 | 62 | 141 | 0.0 | 1.0 | 0.00 | 0.00 | 0.00 | 72 | 1002.2 |
| 20260505084056 | 62 | 141 | 0.0 | 6.0 | 0.00 | 0.00 | 0.00 | 72 | 1002.2 |
| 20260505083531 | 63 | 141 | 3.0 | 6.0 | 0.00 | 0.00 | 0.00 | 71 | 1002.2 |
| 20260505083036 | 63 | 150 | 0.0 | 0.0 | 0.00 | 0.00 | 0.00 | 70 | 1002.2 |
| 20260505082524 | 64 | 184 | 0.0 | 0.0 | 0.00 | 0.00 | 0.00 | 70 | 1002.3 |
| 20260505082041 | 64 | 184 | 0.0 | 0.0 | 0.00 | 0.00 | 0.00 | 70 | 1002.3 |
| 20260505081553 | 64 | 184 | 0.0 | 3.0 | 0.00 | 0.00 | 0.00 | 70 | 1002.2 |
| 20260505081022 | 64 | 184 | 1.0 | 4.0 | 0.00 | 0.00 | 0.00 | 70 | 1002.3 |
| 20260505080549 | 64 | 184 | 2.0 | 5.0 | 0.00 | 0.00 | 0.00 | 69 | 1002.2 |
| 20260505080050 | 65 | 183 | 2.0 | 5.0 | 0.00 | 0.00 | 0.00 | 69 | 1002.3 |
| 20260505075526 | 65 | 192 | 2.0 | 6.0 | 0.00 | 0.00 | 0.00 | 68 | 1002.3 |
| 20260505075036 | 65 | 196 | 2.0 | 6.0 | 0.00 | 0.00 | 0.00 | 67 | 1002.3 |
| 20260505074601 | 65 | 205 | 4.0 | 6.0 | 0.00 | 0.00 | 0.00 | 67 | 1002.3 |
| 20260505074020 | 65 | 190 | 4.0 | 6.0 | 0.00 | 0.00 | 0.00 | 66 | 1002.2 |
| 20260505073545 | 65 | 188 | 3.0 | 5.0 | 0.00 | 0.00 | 0.00 | 66 | 1002.2 |
| 20260505073037 | 65 | 198 | 3.0 | 6.0 | 0.00 | 0.00 | 0.00 | 65 | 1002.4 |
| 20260505072525 | 66 | 196 | 4.0 | 6.0 | 0.00 | 0.00 | 0.00 | 65 | 1002.4 |
| 20260505072043 | 66 | 178 | 2.0 | 5.0 | 0.00 | 0.00 | 0.00 | 65 | 1002.7 |
| 20260505071523 | 66 | 184 | 3.0 | 8.0 | 0.00 | 0.00 | 0.00 | 65 | 1002.8 |
| 20260505071026 | 66 | 208 | 3.0 | 9.0 | 0.00 | 0.00 | 0.00 | 65 | 1002.8 |
| 20260505070518 | 66 | 215 | 5.0 | 16.0 | 0.00 | 0.00 | 0.00 | 65 | 1002.9 |
| 20260505070036 | 65 | 215 | 7.0 | 16.0 | 0.00 | 0.00 | 0.00 | 66 | 1002.9 |
| 20260505065528 | 65 | 190 | 4.0 | 7.0 | 0.00 | 0.00 | 0.00 | 67 | 1002.9 |
| 20260505065048 | 64 | 180 | 3.0 | 7.0 | 0.00 | 0.00 | 0.00 | 67 | 1002.9 |
| 20260505064520 | 63 | 188 | 4.0 | 8.0 | 0.00 | 0.00 | 0.00 | 69 | 1002.7 |
| 20260505064040 | 62 | 200 | 4.0 | 7.0 | 0.00 | 0.00 | 0.00 | 72 | 1002.6 |
| 20260505063535 | 62 | 188 | 4.0 | 6.0 | 0.00 | 0.00 | 0.00 | 73 | 1002.5 |
| 20260505063040 | 62 | 144 | 2.0 | 4.0 | 0.00 | 0.00 | 0.00 | 72 | 1002.6 |
| 20260505062550 | 62 | 180 | 2.0 | 5.0 | 0.00 | 0.00 | 0.00 | 72 | 1002.5 |
| 20260505062040 | 63 | 182 | 1.0 | 5.0 | 0.00 | 0.00 | 0.00 | 71 | 1002.6 |
| 20260505061529 | 63 | 157 | 2.0 | 8.0 | 0.00 | 0.00 | 0.00 | 70 | 1002.6 |
| 20260505061022 | 64 | 130 | 3.0 | 7.0 | 0.00 | 0.00 | 0.00 | 68 | 1002.6 |
| 20260505060528 | 64 | 148 | 3.0 | 6.0 | 0.00 | 0.00 | 0.00 | 67 | 1002.6 |
| 20260505060023 | 65 | 144 | 3.0 | 5.0 | 0.00 | 0.00 | 0.00 | 66 | 1002.5 |
| 20260505055536 | 65 | 140 | 2.0 | 8.0 | 0.00 | 0.00 | 0.00 | 65 | 1002.6 |
| 20260505055029 | 65 | 186 | 4.0 | 8.0 | 0.00 | 0.00 | 0.00 | 64 | 1002.5 |
| 20260505054531 | 65 | 190 | 5.0 | 9.0 | 0.00 | 0.00 | 0.00 | 64 | 1002.6 |
| 20260505054026 | 65 | 191 | 5.0 | 10.0 | 0.00 | 0.00 | 0.00 | 64 | 1002.6 |
| 20260505053536 | 66 | 188 | 6.0 | 10.0 | 0.00 | 0.00 | 0.00 | 63 | 1002.5 |
| 20260505053025 | 66 | 183 | 5.0 | 8.0 | 0.00 | 0.00 | 0.00 | 63 | 1002.5 |
| 20260505052522 | 66 | 192 | 4.0 | 7.0 | 0.00 | 0.00 | 0.00 | 62 | 1002.6 |
| 20260505052033 | 66 | 200 | 4.0 | 8.0 | 0.00 | 0.00 | 0.00 | 62 | 1002.6 |
| 20260505051534 | 66 | 194 | 5.0 | 9.0 | 0.00 | 0.00 | 0.00 | 61 | 1002.6 |
| 20260505051038 | 66 | 185 | 6.0 | 9.0 | 0.00 | 0.00 | 0.00 | 61 | 1002.6 |
| 20260505050535 | 66 | 193 | 6.0 | 9.0 | 0.00 | 0.00 | 0.00 | 60 | 1002.5 |
| 20260505041524 | 66 | 200 | 4.0 | 8.0 | 0.00 | 0.00 | 0.00 | 56 | 1002.9 |
| 20260505041056 | 66 | 189 | 4.0 | 8.0 | 0.00 | 0.00 | 0.00 | 56 | 1002.9 |
| 20260505040525 | 67 | 191 | 4.0 | 7.0 | 0.00 | 0.00 | 0.00 | 56 | 1002.9 |
| 20260505040031 | 67 | 195 | 3.0 | 7.0 | 0.00 | 0.00 | 0.00 | 56 | 1003.0 |
| 20260505035553 | 67 | 204 | 4.0 | 7.0 | 0.00 | 0.00 | 0.00 | 56 | 1003.0 |
| 20260505035046 | 67 | 192 | 4.0 | 12.0 | 0.00 | 0.00 | 0.00 | 56 | 1002.9 |
| 20260505034534 | 66 | 190 | 5.0 | 12.0 | 0.00 | 0.00 | 0.00 | 56 | 1002.8 |
| 20260505034030 | 65 | 196 | 6.0 | 12.0 | 0.00 | 0.00 | 0.00 | 57 | 1002.8 |
| 20260505033538 | 64 | 212 | 6.0 | 11.0 | 0.00 | 0.00 | 0.00 | 58 | 1002.8 |
| 20260505033036 | 61 | 200 | 5.0 | 11.0 | 0.00 | 0.00 | 0.00 | 60 | 1003.0 |
| 20260505032542 | 60 | 200 | 4.0 | 5.0 | 0.00 | 0.00 | 0.00 | 60 | 1003.1 |
| 20260505032033 | 59 | 200 | 2.0 | 3.0 | 0.00 | 0.00 | 0.00 | 63 | 1002.9 |
| 20260505031522 | 58 | 200 | 2.0 | 3.0 | 0.00 | 0.00 | 0.00 | 63 | 1002.9 |
| 20260505031040 | 58 | 200 | 0.0 | 0.0 | 0.00 | 0.00 | 0.00 | 64 | 1002.8 |
| 20260505030525 | 58 | 200 | 0.0 | 0.0 | 0.00 | 0.00 | 0.00 | 64 | 1002.8 |
| 20260505030040 | 58 | 200 | 0.0 | 0.0 | 0.00 | 0.00 | 0.00 | 66 | 1002.8 |
| 20260505025550 | 58 | 200 | 0.0 | 0.0 | 0.00 | 0.00 | 0.00 | 64 | 1002.8 |
| 20260505025028 | 58 | 200 | 0.0 | 0.0 | 0.00 | 0.00 | 0.00 | 61 | 1002.8 |
| 20260505024521 | 58 | 200 | 0.0 | 0.0 | 0.00 | 0.00 | 0.00 | 60 | 1002.7 |
| 20260505024029 | 58 | 200 | 0.0 | 0.0 | 0.00 | 0.00 | 0.00 | 60 | 1002.7 |
| 20260505023547 | 58 | 200 | 0.0 | 0.0 | 0.00 | 0.00 | 0.00 | 59 | 1002.7 |
| 20260505023024 | 58 | 200 | 0.0 | 0.0 | 0.00 | 0.00 | 0.00 | 60 | 1002.8 |
| 20260505022545 | 58 | 200 | 0.0 | 0.0 | 0.00 | 0.00 | 0.00 | 60 | 1002.9 |
| 20260505022046 | 58 | 200 | 0.0 | 0.0 | 0.00 | 0.00 | 0.00 | 61 | 1003.0 |
| 20260505021538 | 59 | 200 | 0.0 | 0.0 | 0.00 | 0.00 | 0.00 | 61 | 1003.0 |
| 20260505021032 | 59 | 200 | 0.0 | 0.0 | 0.00 | 0.00 | 0.00 | 60 | 1003.1 |
| 20260505020526 | 59 | 200 | 0.0 | 0.0 | 0.00 | 0.00 | 0.00 | 58 | 1003.1 |
| 20260505020020 | 59 | 200 | 0.0 | 0.0 | 0.00 | 0.00 | 0.00 | 57 | 1003.1 |
| 20260505015528 | 59 | 200 | 0.0 | 0.0 | 0.00 | 0.00 | 0.00 | 57 | 1003.1 |
| 20260505015046 | 59 | 200 | 0.0 | 0.0 | 0.00 | 0.00 | 0.00 | 57 | 1003.2 |
| 20260505014554 | 60 | 200 | 0.0 | 0.0 | 0.00 | 0.00 | 0.00 | 57 | 1003.1 |
| 20260505014023 | 60 | 200 | 0.0 | 0.0 | 0.00 | 0.00 | 0.00 | 58 | 1003.0 |
| 20260505013545 | 61 | 200 | 0.0 | 0.0 | 0.00 | 0.00 | 0.00 | 57 | 1003.0 |
| 20260505013111 | 61 | 200 | 0.0 | 0.0 | 0.00 | 0.00 | 0.00 | 55 | 1003.0 |
| 20260505012539 | 62 | 200 | 0.0 | 0.0 | 0.00 | 0.00 | 0.00 | 54 | 1002.9 |
| 20260505012041 | 62 | 200 | 0.0 | 0.0 | 0.00 | 0.00 | 0.00 | 54 | 1003.0 |
| 20260505011545 | 62 | 200 | 0.0 | 0.0 | 0.00 | 0.00 | 0.00 | 53 | 1002.9 |
| 20260505011055 | 63 | 200 | 0.0 | 0.0 | 0.00 | 0.00 | 0.00 | 54 | 1002.8 |
| 20260505010526 | 63 | 200 | 0.0 | 0.0 | 0.00 | 0.00 | 0.00 | 53 | 1002.8 |
| 20260505010023 | 63 | 200 | 0.0 | 0.0 | 0.00 | 0.00 | 0.00 | 51 | 1002.7 |
| 20260505005549 | 64 | 200 | 0.0 | 0.0 | 0.00 | 0.00 | 0.00 | 54 | 1002.7 |
| 20260505005027 | 64 | 200 | 0.0 | 0.0 | 0.00 | 0.00 | 0.00 | 52 | 1002.7 |
| 20260505004529 | 65 | 200 | 0.0 | 0.0 | 0.00 | 0.00 | 0.00 | 47 | 1002.7 |
| 20260505004036 | 66 | 200 | 0.0 | 0.0 | 0.00 | 0.00 | 0.00 | 47 | 1002.6 |
| 20260505003605 | 66 | 200 | 0.0 | 0.0 | 0.00 | 0.00 | 0.00 | 46 | 1002.6 |
| 20260505003034 | 67 | 200 | 0.0 | 0.0 | 0.00 | 0.00 | 0.00 | 46 | 1002.7 |
| 20260505002532 | 68 | 200 | 0.0 | 0.0 | 0.00 | 0.00 | 0.00 | 46 | 1002.7 |
| 20260505002046 | 68 | 200 | 0.0 | 0.0 | 0.00 | 0.00 | 0.00 | 43 | 1002.6 |
| 20260505001518 | 69 | 200 | 0.0 | 0.0 | 0.00 | 0.00 | 0.00 | 42 | 1002.6 |
| 20260505001050 | 70 | 200 | 0.0 | 0.0 | 0.00 | 0.00 | 0.00 | 39 | 1002.5 |
| 20260505000524 | 70 | 200 | 0.0 | 0.0 | 0.00 | 0.00 | 0.00 | 40 | 1002.5 |
| 20260505000051 | 71 | 206 | 0.0 | 0.0 | 0.00 | 0.00 | 0.00 | 40 | 1002.5 |
| 20260504235525 | 71 | 206 | 0.0 | 0.0 | 0.00 | 0.00 | 0.00 | 38 | 1002.5 |
| 20260504235042 | 72 | 206 | 0.0 | 0.0 | 0.00 | 0.00 | 0.00 | 37 | 1002.4 |
| 20260504234532 | 72 | 194 | 0.0 | 0.0 | 0.00 | 0.00 | 0.00 | 38 | 1002.3 |
| 20260504234043 | 72 | 194 | 0.0 | 0.0 | 0.00 | 0.00 | 0.00 | 36 | 1002.4 |
| 20260504233539 | 72 | 194 | 0.0 | 0.0 | 0.00 | 0.00 | 0.00 | 35 | 1002.4 |
| 20260504233030 | 73 | 194 | 0.0 | 0.0 | 0.00 | 0.00 | 0.00 | 36 | 1002.5 |
| 20260504232523 | 73 | 194 | 0.0 | 2.0 | 0.00 | 0.00 | 0.00 | 35 | 1002.5 |
| 20260504232049 | 73 | 194 | 0.0 | 2.0 | 0.00 | 0.00 | 0.00 | 35 | 1002.5 |
| 20260504231537 | 73 | 194 | 0.0 | 3.0 | 0.00 | 0.00 | 0.00 | 35 | 1002.5 |
| 20260504231030 | 73 | 188 | 1.0 | 3.0 | 0.00 | 0.00 | 0.00 | 36 | 1002.4 |
| 20260504230539 | 74 | 189 | 0.0 | 3.0 | 0.00 | 0.00 | 0.00 | 34 | 1002.4 |
| 20260504230110 | 74 | 189 | 0.0 | 3.0 | 0.00 | 0.00 | 0.00 | 34 | 1002.3 |
| 20260504225525 | 75 | 189 | 0.0 | 4.0 | 0.00 | 0.00 | 0.00 | 33 | 1002.3 |
| 20260504225044 | 75 | 225 | 2.0 | 6.0 | 0.00 | 0.00 | 0.00 | 33 | 1002.3 |
| 20260504224610 | 75 | 215 | 2.0 | 4.0 | 0.00 | 0.00 | 0.00 | 34 | 1002.3 |
| 20260504224022 | 75 | 274 | 2.0 | 5.0 | 0.00 | 0.00 | 0.00 | 35 | 1002.3 |
| 20260504223545 | 75 | 165 | 3.0 | 5.0 | 0.00 | 0.00 | 0.00 | 32 | 1002.3 |
| 20260504223028 | 75 | 205 | 1.0 | 5.0 | 0.00 | 0.00 | 0.00 | 34 | 1002.4 |
| 20260504222549 | 75 | 250 | 2.0 | 5.0 | 0.00 | 0.00 | 0.00 | 33 | 1002.3 |
| 20260504222030 | 75 | 236 | 2.0 | 7.0 | 0.00 | 0.00 | 0.00 | 33 | 1002.3 |
| 20260504221518 | 75 | 219 | 2.0 | 7.0 | 0.00 | 0.00 | 0.00 | 35 | 1002.4 |
| 20260504221110 | 75 | 173 | 2.0 | 9.0 | 0.00 | 0.00 | 0.00 | 33 | 1002.3 |
| 20260504220522 | 75 | 184 | 6.0 | 9.0 | 0.00 | 0.00 | 0.00 | 33 | 1002.4 |
| 20260504220041 | 75 | 210 | 4.0 | 6.0 | 0.00 | 0.00 | 0.00 | 34 | 1002.5 |
| 20260504215518 | 75 | 246 | 2.0 | 6.0 | 0.00 | 0.00 | 0.00 | 35 | 1002.5 |